Flag for Germany Weather past 2 weeks in Emsdetten, North Rhine-Westphalia, Germany

Now
59 °F

Clear.


Feels Like: 59 °F
Forecast: 60 / 85 °F
Wind: 2 mph from Northeast

Location: Muenster / Osnabrueck

Current Time: Jun 30, 2015 at 2:19:47 AM

Latest Report: Jun 30, 2015 at 1:50 AM


Visibility: 10 mi

Pressure: 30.18 "Hg

Humidity: 82%

Dew point: 54 °F

Location of EmsdettenLocation

Historic Weather in Emsdetten — Graph

°F

Emsdetten temperature yesterday

Maximum temperature yesterday: 77 °F (at 4:20 PM)
Minimum temperature yesterday: 59 °F (at 5:20 AM)
Average temperature yesterday: 68 °F

Past Weeks' High & Low Weather Summary

 TemperatureHumidityPressure
High79 °F (Jun 26, 3:20 PM)100% (Jun 17, 1:20 AM)30.30 "Hg (Jun 17, 1:20 AM)
Low39 °F (Jun 17, 4:50 AM)30% (Jun 15, 4:50 PM)29.65 "Hg (Jun 22, 8:50 PM)
Average59 °F74%30.06 "Hg
* Reported Jun 15 1:20 AM — Jun 30 1:20 AM, Emsdetten, Weather by CustomWeather, © 2015

Note: Actual official high and low records may vary slightly from our data, if they occured in-between our weather recording intervals... More about our weather records

Advertising

Emsdetten weather history for previous 24 hours

 ConditionsComfort  
Time TempWeatherWind HumidityBarometerVisibility
1:20 AM
Tue, Jun 30
59 °FClear.2 mph82%30.18 "Hg10 mi
12:50 AM61 °FClear.2 mph77%30.21 "Hg10 mi
12:20 AM61 °FClear.1 mph77%30.18 "Hg10 mi
11:20 PM
Mon, Jun 29
64 °FClear.5 mph68%30.18 "Hg10 mi
10:50 PM66 °FSunny.6 mph64%30.18 "Hg10 mi
10:20 PM66 °FSunny.5 mph68%30.18 "Hg10 mi
9:50 PM66 °FSunny.5 mph68%30.18 "Hg10 mi
9:20 PM68 °FSunny.6 mph69%30.18 "Hg10 mi
8:50 PM70 °FSunny.9 mph64%30.15 "Hg10 mi
8:20 PM72 °FSunny.10 mph65%30.15 "Hg10 mi
7:50 PM75 °FSunny.7 mph47%30.15 "Hg10 mi
7:20 PM75 °FSunny.6 mph47%30.15 "Hg10 mi
6:50 PM77 °FPassing clouds.7 mph44%30.15 "HgN/A
6:20 PM77 °FSunny.8 mph42%30.15 "Hg10 mi
5:50 PM77 °FSunny.8 mph42%30.15 "Hg10 mi
5:20 PM77 °FSunny.9 mph44%30.15 "Hg10 mi
4:50 PM75 °FSunny.7 mph44%30.15 "Hg10 mi
4:20 PM77 °FPassing clouds.5 mph42%30.15 "HgN/A
3:50 PM75 °FSunny.7 mph44%30.15 "Hg10 mi
3:20 PM75 °FPassing clouds.7 mph41%30.12 "HgN/A
2:50 PM73 °FScattered clouds.8 mph47%30.12 "HgN/A
2:20 PM73 °FScattered clouds.8 mph50%30.12 "HgN/A
1:50 PM75 °FScattered clouds.9 mph47%30.15 "HgN/A
1:20 PM73 °FScattered clouds.6 mph53%30.12 "HgN/A
12:50 PM72 °FBroken clouds.7 mph57%30.12 "HgN/A
12:20 PM72 °FBroken clouds.6 mph57%30.12 "HgN/A
11:50 AM72 °FPartly sunny.7 mph61%30.12 "HgN/A
11:20 AM72 °FPartly sunny.7 mph57%30.12 "HgN/A
10:50 AM70 °FBroken clouds.6 mph60%30.12 "HgN/A
10:20 AM70 °FPartly sunny.5 mph60%30.12 "HgN/A
9:50 AM68 °FBroken clouds.6 mph64%30.12 "HgN/A
9:20 AM66 °FPartly sunny.5 mph73%30.12 "HgN/A
8:50 AM66 °FPartly sunny.6 mph68%30.12 "HgN/A
8:20 AM66 °FScattered clouds.6 mph73%30.09 "HgN/A
7:50 AM64 °FSunny.2 mph78%30.09 "Hg10 mi
7:20 AM63 °FSunny.2 mph83%30.09 "Hg10 mi
6:50 AM61 °FSunny.1 mph83%30.09 "Hg10 mi
6:20 AM59 °FScattered clouds.No wind94%30.09 "HgN/A
5:50 AM59 °FPassing clouds.2 mph88%30.09 "HgN/A
5:20 AM59 °FPassing clouds.3 mph88%30.09 "HgN/A
4:50 AM61 °FPassing clouds.2 mph88%30.09 "HgN/A
4:20 AM61 °FClear.2 mph88%30.09 "Hg10 mi
3:50 AM61 °FClear.2 mph88%30.09 "Hg10 mi
3:20 AM61 °FClear.3 mph88%30.09 "Hg10 mi
2:50 AM61 °FClear.3 mph88%30.09 "Hg10 mi
2:20 AM63 °FClear.2 mph77%30.09 "Hg10 mi
Weather by CustomWeather, © 2015

See weather overviewHow to use our weather pages